<?xml version="1.0" encoding="UTF-8" standalone="no" ?>
<gpx xmlns="http://www.topografix.com/GPX/1/1" xmlns:xsi="http://www.w3.org/2001/XMLSchema-instance" xsi:schemaLocation="http://www.topografix.com/GPX/1/1 http://www.topografix.com/GPX/1/1/gpx.xsd" version="1.1" creator="VisuGPX - https://www.visugpx.com">
  <metadata>
    <name>Buiscyclette 35KM</name>
    <desc><![CDATA[Buiscyclette 35KM]]></desc>
  </metadata>
  <trk>
    <name><![CDATA[Buiscyclette 35KM_1]]></name>
    <trkseg>
      <trkpt lat="44.27421" lon="5.26843">
        <ele>386.8</ele>
        <time>2014-05-04T06:36:19Z</time>
      </trkpt>
      <trkpt lat="44.2742" lon="5.26587">
        <ele>409.4</ele>
        <time>2014-05-04T06:36:19Z</time>
      </trkpt>
      <trkpt lat="44.27509" lon="5.26453">
        <ele>424.7</ele>
        <time>2014-05-04T06:36:19Z</time>
      </trkpt>
      <trkpt lat="44.27687" lon="5.26488">
        <ele>441.8</ele>
        <time>2014-05-04T06:36:19Z</time>
      </trkpt>
      <trkpt lat="44.27824" lon="5.26372">
        <ele>457.4</ele>
        <time>2014-05-04T06:36:19Z</time>
      </trkpt>
      <trkpt lat="44.27968" lon="5.26458">
        <ele>469.6</ele>
        <time>2014-05-04T06:36:19Z</time>
      </trkpt>
      <trkpt lat="44.28045" lon="5.2627">
        <ele>484.6</ele>
        <time>2014-05-04T06:36:19Z</time>
      </trkpt>
      <trkpt lat="44.28037" lon="5.26069">
        <ele>506.5</ele>
        <time>2014-05-04T06:36:19Z</time>
      </trkpt>
      <trkpt lat="44.27943" lon="5.25921">
        <ele>517.3</ele>
        <time>2014-05-04T06:36:19Z</time>
      </trkpt>
      <trkpt lat="44.28116" lon="5.25823">
        <ele>527.2</ele>
        <time>2014-05-04T06:36:19Z</time>
      </trkpt>
      <trkpt lat="44.28302" lon="5.25784">
        <ele>539.1</ele>
        <time>2014-05-04T06:36:19Z</time>
      </trkpt>
      <trkpt lat="44.28429" lon="5.25783">
        <ele>550.3</ele>
        <time>2014-05-04T06:36:19Z</time>
      </trkpt>
      <trkpt lat="44.28466" lon="5.25852">
        <ele>566.2</ele>
        <time>2014-05-04T06:36:19Z</time>
      </trkpt>
      <trkpt lat="44.28523" lon="5.25899">
        <ele>584.4</ele>
        <time>2014-05-04T06:36:19Z</time>
      </trkpt>
      <trkpt lat="44.28618" lon="5.2608">
        <ele>593.3</ele>
        <time>2014-05-04T06:36:19Z</time>
      </trkpt>
      <trkpt lat="44.28743" lon="5.26159">
        <ele>617.5</ele>
        <time>2014-05-04T06:36:19Z</time>
      </trkpt>
      <trkpt lat="44.28705" lon="5.25926">
        <ele>639.1</ele>
        <time>2014-05-04T06:36:19Z</time>
      </trkpt>
      <trkpt lat="44.28841" lon="5.2575">
        <ele>647.9</ele>
        <time>2014-05-04T06:36:19Z</time>
      </trkpt>
      <trkpt lat="44.29" lon="5.25645">
        <ele>666.6</ele>
        <time>2014-05-04T06:36:19Z</time>
      </trkpt>
      <trkpt lat="44.2917" lon="5.25662">
        <ele>707.1</ele>
        <time>2014-05-04T06:36:19Z</time>
      </trkpt>
      <trkpt lat="44.2925" lon="5.25643">
        <ele>741.4</ele>
        <time>2014-05-04T06:36:19Z</time>
      </trkpt>
      <trkpt lat="44.29398" lon="5.25543">
        <ele>771.2</ele>
        <time>2014-05-04T06:36:19Z</time>
      </trkpt>
      <trkpt lat="44.2955" lon="5.25404">
        <ele>816.4</ele>
        <time>2014-05-04T06:36:19Z</time>
      </trkpt>
      <trkpt lat="44.29694" lon="5.25323">
        <ele>854.2</ele>
        <time>2014-05-04T06:36:19Z</time>
      </trkpt>
      <trkpt lat="44.29801" lon="5.25177">
        <ele>845.6</ele>
        <time>2014-05-04T06:36:19Z</time>
      </trkpt>
      <trkpt lat="44.29855" lon="5.24959">
        <ele>849.4</ele>
        <time>2014-05-04T06:36:19Z</time>
      </trkpt>
      <trkpt lat="44.29861" lon="5.24707">
        <ele>855.3</ele>
        <time>2014-05-04T06:36:19Z</time>
      </trkpt>
      <trkpt lat="44.29959" lon="5.24516">
        <ele>857.8</ele>
        <time>2014-05-04T06:36:19Z</time>
      </trkpt>
      <trkpt lat="44.30029" lon="5.24297">
        <ele>839.8</ele>
        <time>2014-05-04T06:36:19Z</time>
      </trkpt>
      <trkpt lat="44.30064" lon="5.24072">
        <ele>838.3</ele>
        <time>2014-05-04T06:36:19Z</time>
      </trkpt>
      <trkpt lat="44.30164" lon="5.23876">
        <ele>842.5</ele>
        <time>2014-05-04T06:36:19Z</time>
      </trkpt>
      <trkpt lat="44.30286" lon="5.23714">
        <ele>848.5</ele>
        <time>2014-05-04T06:36:19Z</time>
      </trkpt>
      <trkpt lat="44.30369" lon="5.23585">
        <ele>850.2</ele>
        <time>2014-05-04T06:36:19Z</time>
      </trkpt>
      <trkpt lat="44.3051" lon="5.2345">
        <ele>861.1</ele>
        <time>2014-05-04T06:36:19Z</time>
      </trkpt>
      <trkpt lat="44.3064" lon="5.23284">
        <ele>868.9</ele>
        <time>2014-05-04T06:36:19Z</time>
      </trkpt>
      <trkpt lat="44.30744" lon="5.23092">
        <ele>873.1</ele>
        <time>2014-05-04T06:36:19Z</time>
      </trkpt>
      <trkpt lat="44.3084" lon="5.22884">
        <ele>887.3</ele>
        <time>2014-05-04T06:36:19Z</time>
      </trkpt>
      <trkpt lat="44.30943" lon="5.22752">
        <ele>896</ele>
        <time>2014-05-04T06:36:19Z</time>
      </trkpt>
      <trkpt lat="44.31105" lon="5.22784">
        <ele>924.7</ele>
        <time>2014-05-04T06:36:19Z</time>
      </trkpt>
      <trkpt lat="44.31195" lon="5.22979">
        <ele>946.6</ele>
        <time>2014-05-04T06:36:19Z</time>
      </trkpt>
      <trkpt lat="44.31336" lon="5.23111">
        <ele>967.3</ele>
        <time>2014-05-04T06:36:19Z</time>
      </trkpt>
      <trkpt lat="44.31443" lon="5.233">
        <ele>992.9</ele>
        <time>2014-05-04T06:36:19Z</time>
      </trkpt>
      <trkpt lat="44.31482" lon="5.23533">
        <ele>1019.9</ele>
        <time>2014-05-04T06:36:19Z</time>
      </trkpt>
      <trkpt lat="44.31561" lon="5.23776">
        <ele>1041.6</ele>
        <time>2014-05-04T06:36:19Z</time>
      </trkpt>
      <trkpt lat="44.31517" lon="5.24006">
        <ele>1076.4</ele>
        <time>2014-05-04T06:36:19Z</time>
      </trkpt>
      <trkpt lat="44.31464" lon="5.24236">
        <ele>1111.4</ele>
        <time>2014-05-04T06:36:19Z</time>
      </trkpt>
      <trkpt lat="44.31377" lon="5.24419">
        <ele>1129.2</ele>
        <time>2014-05-04T06:36:19Z</time>
      </trkpt>
      <trkpt lat="44.3134" lon="5.24638">
        <ele>1117.2</ele>
        <time>2014-05-04T06:36:19Z</time>
      </trkpt>
      <trkpt lat="44.31371" lon="5.24853">
        <ele>1104.5</ele>
        <time>2014-05-04T06:36:19Z</time>
      </trkpt>
      <trkpt lat="44.31438" lon="5.25064">
        <ele>1063.4</ele>
        <time>2014-05-04T06:36:19Z</time>
      </trkpt>
      <trkpt lat="44.31405" lon="5.2527">
        <ele>1022.6</ele>
        <time>2014-05-04T06:36:19Z</time>
      </trkpt>
      <trkpt lat="44.3126" lon="5.2536">
        <ele>973.4</ele>
        <time>2014-05-04T06:36:19Z</time>
      </trkpt>
      <trkpt lat="44.31173" lon="5.25506">
        <ele>940.3</ele>
        <time>2014-05-04T06:36:19Z</time>
      </trkpt>
      <trkpt lat="44.3112" lon="5.25732">
        <ele>893.8</ele>
        <time>2014-05-04T06:36:19Z</time>
      </trkpt>
      <trkpt lat="44.31088" lon="5.25957">
        <ele>860.1</ele>
        <time>2014-05-04T06:36:19Z</time>
      </trkpt>
      <trkpt lat="44.31029" lon="5.26154">
        <ele>841.8</ele>
        <time>2014-05-04T06:36:19Z</time>
      </trkpt>
      <trkpt lat="44.30999" lon="5.26383">
        <ele>823.8</ele>
        <time>2014-05-04T06:36:19Z</time>
      </trkpt>
      <trkpt lat="44.31015" lon="5.26613">
        <ele>800.6</ele>
        <time>2014-05-04T06:36:19Z</time>
      </trkpt>
      <trkpt lat="44.31032" lon="5.26842">
        <ele>775.6</ele>
        <time>2014-05-04T06:36:19Z</time>
      </trkpt>
      <trkpt lat="44.31077" lon="5.26994">
        <ele>763.7</ele>
        <time>2014-05-04T06:36:19Z</time>
      </trkpt>
      <trkpt lat="44.31171" lon="5.27137">
        <ele>744.9</ele>
        <time>2014-05-04T06:36:19Z</time>
      </trkpt>
      <trkpt lat="44.31222" lon="5.27344">
        <ele>724.4</ele>
        <time>2014-05-04T06:36:19Z</time>
      </trkpt>
      <trkpt lat="44.31259" lon="5.27573">
        <ele>720</ele>
        <time>2014-05-04T06:36:19Z</time>
      </trkpt>
      <trkpt lat="44.31236" lon="5.27864">
        <ele>721.1</ele>
        <time>2014-05-04T06:36:19Z</time>
      </trkpt>
      <trkpt lat="44.31183" lon="5.2809">
        <ele>732.7</ele>
        <time>2014-05-04T06:36:19Z</time>
      </trkpt>
      <trkpt lat="44.31155" lon="5.28348">
        <ele>746</ele>
        <time>2014-05-04T06:36:19Z</time>
      </trkpt>
      <trkpt lat="44.31111" lon="5.28607">
        <ele>760</ele>
        <time>2014-05-04T06:36:19Z</time>
      </trkpt>
      <trkpt lat="44.31132" lon="5.28808">
        <ele>768.8</ele>
        <time>2014-05-04T06:36:19Z</time>
      </trkpt>
      <trkpt lat="44.31097" lon="5.29046">
        <ele>790.2</ele>
        <time>2014-05-04T06:36:19Z</time>
      </trkpt>
      <trkpt lat="44.31172" lon="5.29248">
        <ele>783.4</ele>
        <time>2014-05-04T06:36:19Z</time>
      </trkpt>
      <trkpt lat="44.31172" lon="5.29467">
        <ele>781</ele>
        <time>2014-05-04T06:36:19Z</time>
      </trkpt>
      <trkpt lat="44.31159" lon="5.29698">
        <ele>786.5</ele>
        <time>2014-05-04T06:36:19Z</time>
      </trkpt>
      <trkpt lat="44.31106" lon="5.29958">
        <ele>810.2</ele>
        <time>2014-05-04T06:36:19Z</time>
      </trkpt>
      <trkpt lat="44.31107" lon="5.30183">
        <ele>813.2</ele>
        <time>2014-05-04T06:36:19Z</time>
      </trkpt>
      <trkpt lat="44.31066" lon="5.30413">
        <ele>818.5</ele>
        <time>2014-05-04T06:36:19Z</time>
      </trkpt>
      <trkpt lat="44.31052" lon="5.30686">
        <ele>838.1</ele>
        <time>2014-05-04T06:36:19Z</time>
      </trkpt>
      <trkpt lat="44.31047" lon="5.3093">
        <ele>846.9</ele>
        <time>2014-05-04T06:36:19Z</time>
      </trkpt>
      <trkpt lat="44.31059" lon="5.31156">
        <ele>845</ele>
        <time>2014-05-04T06:36:19Z</time>
      </trkpt>
      <trkpt lat="44.31075" lon="5.31376">
        <ele>842.2</ele>
        <time>2014-05-04T06:36:19Z</time>
      </trkpt>
      <trkpt lat="44.31125" lon="5.31593">
        <ele>815.1</ele>
        <time>2014-05-04T06:36:19Z</time>
      </trkpt>
      <trkpt lat="44.31149" lon="5.31808">
        <ele>804.5</ele>
        <time>2014-05-04T06:36:19Z</time>
      </trkpt>
      <trkpt lat="44.31039" lon="5.31861">
        <ele>780.5</ele>
        <time>2014-05-04T06:36:19Z</time>
      </trkpt>
      <trkpt lat="44.30969" lon="5.3204">
        <ele>749.9</ele>
        <time>2014-05-04T06:36:19Z</time>
      </trkpt>
      <trkpt lat="44.30905" lon="5.32248">
        <ele>737.3</ele>
        <time>2014-05-04T06:36:19Z</time>
      </trkpt>
      <trkpt lat="44.30889" lon="5.32443">
        <ele>728</ele>
        <time>2014-05-04T06:36:19Z</time>
      </trkpt>
      <trkpt lat="44.30796" lon="5.32623">
        <ele>710.3</ele>
        <time>2014-05-04T06:36:19Z</time>
      </trkpt>
      <trkpt lat="44.30745" lon="5.32832">
        <ele>710.5</ele>
        <time>2014-05-04T06:36:19Z</time>
      </trkpt>
      <trkpt lat="44.3071" lon="5.33038">
        <ele>703.8</ele>
        <time>2014-05-04T06:36:19Z</time>
      </trkpt>
      <trkpt lat="44.30626" lon="5.33135">
        <ele>681.6</ele>
        <time>2014-05-04T06:36:19Z</time>
      </trkpt>
      <trkpt lat="44.30647" lon="5.33342">
        <ele>679.7</ele>
        <time>2014-05-04T06:36:19Z</time>
      </trkpt>
      <trkpt lat="44.30535" lon="5.3342">
        <ele>655.4</ele>
        <time>2014-05-04T06:36:19Z</time>
      </trkpt>
      <trkpt lat="44.30459" lon="5.33596">
        <ele>647.1</ele>
        <time>2014-05-04T06:36:19Z</time>
      </trkpt>
      <trkpt lat="44.30396" lon="5.33773">
        <ele>643.2</ele>
        <time>2014-05-04T06:36:19Z</time>
      </trkpt>
      <trkpt lat="44.30358" lon="5.33956">
        <ele>630.5</ele>
        <time>2014-05-04T06:36:19Z</time>
      </trkpt>
      <trkpt lat="44.30221" lon="5.34069">
        <ele>617.6</ele>
        <time>2014-05-04T06:36:19Z</time>
      </trkpt>
      <trkpt lat="44.30184" lon="5.3425">
        <ele>604</ele>
        <time>2014-05-04T06:36:19Z</time>
      </trkpt>
      <trkpt lat="44.30197" lon="5.34473">
        <ele>574.7</ele>
        <time>2014-05-04T06:36:19Z</time>
      </trkpt>
      <trkpt lat="44.30289" lon="5.34514">
        <ele>569.2</ele>
        <time>2014-05-04T06:36:19Z</time>
      </trkpt>
      <trkpt lat="44.30226" lon="5.34606">
        <ele>545.5</ele>
        <time>2014-05-04T06:36:19Z</time>
      </trkpt>
      <trkpt lat="44.30116" lon="5.34671">
        <ele>516.9</ele>
        <time>2014-05-04T06:36:19Z</time>
      </trkpt>
      <trkpt lat="44.30104" lon="5.34809">
        <ele>510.7</ele>
        <time>2014-05-04T06:36:19Z</time>
      </trkpt>
      <trkpt lat="44.29981" lon="5.34708">
        <ele>527.6</ele>
        <time>2014-05-04T06:36:19Z</time>
      </trkpt>
      <trkpt lat="44.29962" lon="5.34919">
        <ele>547</ele>
        <time>2014-05-04T06:36:19Z</time>
      </trkpt>
      <trkpt lat="44.29877" lon="5.35082">
        <ele>563.5</ele>
        <time>2014-05-04T06:36:19Z</time>
      </trkpt>
      <trkpt lat="44.29777" lon="5.35184">
        <ele>585.5</ele>
        <time>2014-05-04T06:36:19Z</time>
      </trkpt>
      <trkpt lat="44.29646" lon="5.3535">
        <ele>602.7</ele>
        <time>2014-05-04T06:36:19Z</time>
      </trkpt>
      <trkpt lat="44.29517" lon="5.35535">
        <ele>622.8</ele>
        <time>2014-05-04T06:36:19Z</time>
      </trkpt>
      <trkpt lat="44.29356" lon="5.35502">
        <ele>640.9</ele>
        <time>2014-05-04T06:36:19Z</time>
      </trkpt>
      <trkpt lat="44.29185" lon="5.35485">
        <ele>662.8</ele>
        <time>2014-05-04T06:36:19Z</time>
      </trkpt>
      <trkpt lat="44.29129" lon="5.35338">
        <ele>683.1</ele>
        <time>2014-05-04T06:36:19Z</time>
      </trkpt>
      <trkpt lat="44.29024" lon="5.35424">
        <ele>698.4</ele>
        <time>2014-05-04T06:36:19Z</time>
      </trkpt>
      <trkpt lat="44.28901" lon="5.35565">
        <ele>713.8</ele>
        <time>2014-05-04T06:36:19Z</time>
      </trkpt>
      <trkpt lat="44.28813" lon="5.35776">
        <ele>728.4</ele>
        <time>2014-05-04T06:36:19Z</time>
      </trkpt>
      <trkpt lat="44.28753" lon="5.35744">
        <ele>752.6</ele>
        <time>2014-05-04T06:36:19Z</time>
      </trkpt>
      <trkpt lat="44.28678" lon="5.35573">
        <ele>778</ele>
        <time>2014-05-04T06:36:19Z</time>
      </trkpt>
      <trkpt lat="44.28626" lon="5.35636">
        <ele>797.7</ele>
        <time>2014-05-04T06:36:19Z</time>
      </trkpt>
      <trkpt lat="44.28478" lon="5.35645">
        <ele>816.9</ele>
        <time>2014-05-04T06:36:19Z</time>
      </trkpt>
      <trkpt lat="44.284" lon="5.35853">
        <ele>827.2</ele>
        <time>2014-05-04T06:36:19Z</time>
      </trkpt>
      <trkpt lat="44.28273" lon="5.36035">
        <ele>853.3</ele>
        <time>2014-05-04T06:36:19Z</time>
      </trkpt>
      <trkpt lat="44.28361" lon="5.36172">
        <ele>866.7</ele>
        <time>2014-05-04T06:36:19Z</time>
      </trkpt>
      <trkpt lat="44.28406" lon="5.36412">
        <ele>886.6</ele>
        <time>2014-05-04T06:36:19Z</time>
      </trkpt>
      <trkpt lat="44.2848" lon="5.36593">
        <ele>905.2</ele>
        <time>2014-05-04T06:36:19Z</time>
      </trkpt>
      <trkpt lat="44.28447" lon="5.36715">
        <ele>921.3</ele>
        <time>2014-05-04T06:36:19Z</time>
      </trkpt>
      <trkpt lat="44.28324" lon="5.36884">
        <ele>931.6</ele>
        <time>2014-05-04T06:36:19Z</time>
      </trkpt>
      <trkpt lat="44.28209" lon="5.37073">
        <ele>943.6</ele>
        <time>2014-05-04T06:36:19Z</time>
      </trkpt>
      <trkpt lat="44.28069" lon="5.37237">
        <ele>972.4</ele>
        <time>2014-05-04T06:36:19Z</time>
      </trkpt>
      <trkpt lat="44.27927" lon="5.37303">
        <ele>1007</ele>
        <time>2014-05-04T06:36:19Z</time>
      </trkpt>
      <trkpt lat="44.28004" lon="5.37098">
        <ele>1007</ele>
        <time>2014-05-04T06:36:19Z</time>
      </trkpt>
      <trkpt lat="44.28077" lon="5.36888">
        <ele>1012.9</ele>
        <time>2014-05-04T06:36:19Z</time>
      </trkpt>
      <trkpt lat="44.27999" lon="5.36671">
        <ele>1016.9</ele>
        <time>2014-05-04T06:36:19Z</time>
      </trkpt>
      <trkpt lat="44.27915" lon="5.36472">
        <ele>1028.1</ele>
        <time>2014-05-04T06:36:19Z</time>
      </trkpt>
      <trkpt lat="44.27828" lon="5.36247">
        <ele>1034.8</ele>
        <time>2014-05-04T06:36:19Z</time>
      </trkpt>
      <trkpt lat="44.27766" lon="5.36106">
        <ele>1040.2</ele>
        <time>2014-05-04T06:36:19Z</time>
      </trkpt>
      <trkpt lat="44.27882" lon="5.35922">
        <ele>1055.1</ele>
        <time>2014-05-04T06:36:19Z</time>
      </trkpt>
      <trkpt lat="44.27961" lon="5.35681">
        <ele>1070.1</ele>
        <time>2014-05-04T06:36:19Z</time>
      </trkpt>
      <trkpt lat="44.27995" lon="5.35462">
        <ele>1054.1</ele>
        <time>2014-05-04T06:36:19Z</time>
      </trkpt>
      <trkpt lat="44.27986" lon="5.35206">
        <ele>1067.2</ele>
        <time>2014-05-04T06:36:19Z</time>
      </trkpt>
      <trkpt lat="44.27991" lon="5.34969">
        <ele>1073.6</ele>
        <time>2014-05-04T06:36:19Z</time>
      </trkpt>
      <trkpt lat="44.27997" lon="5.34742">
        <ele>1073.3</ele>
        <time>2014-05-04T06:36:19Z</time>
      </trkpt>
      <trkpt lat="44.28012" lon="5.34521">
        <ele>1067.3</ele>
        <time>2014-05-04T06:36:19Z</time>
      </trkpt>
      <trkpt lat="44.28007" lon="5.34285">
        <ele>1074.4</ele>
        <time>2014-05-04T06:36:19Z</time>
      </trkpt>
      <trkpt lat="44.28015" lon="5.34056">
        <ele>1081.2</ele>
        <time>2014-05-04T06:36:19Z</time>
      </trkpt>
      <trkpt lat="44.28083" lon="5.33826">
        <ele>1085.4</ele>
        <time>2014-05-04T06:36:19Z</time>
      </trkpt>
      <trkpt lat="44.28084" lon="5.3361">
        <ele>1071.3</ele>
        <time>2014-05-04T06:36:19Z</time>
      </trkpt>
      <trkpt lat="44.28142" lon="5.33391">
        <ele>1069.5</ele>
        <time>2014-05-04T06:36:19Z</time>
      </trkpt>
      <trkpt lat="44.28218" lon="5.33213">
        <ele>1051.2</ele>
        <time>2014-05-04T06:36:19Z</time>
      </trkpt>
      <trkpt lat="44.28262" lon="5.33003">
        <ele>1026.6</ele>
        <time>2014-05-04T06:36:19Z</time>
      </trkpt>
      <trkpt lat="44.28329" lon="5.3281">
        <ele>1009</ele>
        <time>2014-05-04T06:36:19Z</time>
      </trkpt>
      <trkpt lat="44.28409" lon="5.32625">
        <ele>999</ele>
        <time>2014-05-04T06:36:19Z</time>
      </trkpt>
      <trkpt lat="44.2844" lon="5.32403">
        <ele>998.8</ele>
        <time>2014-05-04T06:36:19Z</time>
      </trkpt>
      <trkpt lat="44.28391" lon="5.32197">
        <ele>969.6</ele>
        <time>2014-05-04T06:36:19Z</time>
      </trkpt>
      <trkpt lat="44.28339" lon="5.32027">
        <ele>946.5</ele>
        <time>2014-05-04T06:36:19Z</time>
      </trkpt>
      <trkpt lat="44.28476" lon="5.31937">
        <ele>937.3</ele>
        <time>2014-05-04T06:36:19Z</time>
      </trkpt>
      <trkpt lat="44.28499" lon="5.31731">
        <ele>909.3</ele>
        <time>2014-05-04T06:36:19Z</time>
      </trkpt>
      <trkpt lat="44.28527" lon="5.31513">
        <ele>891.9</ele>
        <time>2014-05-04T06:36:19Z</time>
      </trkpt>
      <trkpt lat="44.28568" lon="5.31313">
        <ele>871.3</ele>
        <time>2014-05-04T06:36:19Z</time>
      </trkpt>
      <trkpt lat="44.28598" lon="5.31104">
        <ele>868</ele>
        <time>2014-05-04T06:36:19Z</time>
      </trkpt>
      <trkpt lat="44.28641" lon="5.30891">
        <ele>865.7</ele>
        <time>2014-05-04T06:36:19Z</time>
      </trkpt>
      <trkpt lat="44.28686" lon="5.3069">
        <ele>848.1</ele>
        <time>2014-05-04T06:36:19Z</time>
      </trkpt>
      <trkpt lat="44.28755" lon="5.30523">
        <ele>851.1</ele>
        <time>2014-05-04T06:36:19Z</time>
      </trkpt>
      <trkpt lat="44.28847" lon="5.30399">
        <ele>836.7</ele>
        <time>2014-05-04T06:36:19Z</time>
      </trkpt>
      <trkpt lat="44.28838" lon="5.30178">
        <ele>782.6</ele>
        <time>2014-05-04T06:36:19Z</time>
      </trkpt>
      <trkpt lat="44.28828" lon="5.29968">
        <ele>740.9</ele>
        <time>2014-05-04T06:36:19Z</time>
      </trkpt>
      <trkpt lat="44.28785" lon="5.29761">
        <ele>705.4</ele>
        <time>2014-05-04T06:36:19Z</time>
      </trkpt>
      <trkpt lat="44.28824" lon="5.29696">
        <ele>666.3</ele>
        <time>2014-05-04T06:36:19Z</time>
      </trkpt>
      <trkpt lat="44.28877" lon="5.29541">
        <ele>641</ele>
        <time>2014-05-04T06:36:19Z</time>
      </trkpt>
      <trkpt lat="44.28915" lon="5.29359">
        <ele>609.1</ele>
        <time>2014-05-04T06:36:19Z</time>
      </trkpt>
      <trkpt lat="44.28911" lon="5.29168">
        <ele>576.8</ele>
        <time>2014-05-04T06:36:19Z</time>
      </trkpt>
      <trkpt lat="44.28872" lon="5.29038">
        <ele>556.2</ele>
        <time>2014-05-04T06:36:19Z</time>
      </trkpt>
      <trkpt lat="44.28797" lon="5.28942">
        <ele>512.9</ele>
        <time>2014-05-04T06:36:19Z</time>
      </trkpt>
      <trkpt lat="44.28771" lon="5.28806">
        <ele>491.6</ele>
        <time>2014-05-04T06:36:19Z</time>
      </trkpt>
      <trkpt lat="44.28645" lon="5.28703">
        <ele>476.5</ele>
        <time>2014-05-04T06:36:19Z</time>
      </trkpt>
      <trkpt lat="44.28556" lon="5.28627">
        <ele>436.8</ele>
        <time>2014-05-04T06:36:19Z</time>
      </trkpt>
      <trkpt lat="44.28499" lon="5.28599">
        <ele>410.9</ele>
        <time>2014-05-04T06:36:19Z</time>
      </trkpt>
      <trkpt lat="44.28362" lon="5.28497">
        <ele>411.1</ele>
        <time>2014-05-04T06:36:19Z</time>
      </trkpt>
      <trkpt lat="44.28207" lon="5.28432">
        <ele>415.2</ele>
        <time>2014-05-04T06:36:19Z</time>
      </trkpt>
      <trkpt lat="44.28082" lon="5.2852">
        <ele>406.1</ele>
        <time>2014-05-04T06:36:19Z</time>
      </trkpt>
      <trkpt lat="44.27994" lon="5.28673">
        <ele>411.7</ele>
        <time>2014-05-04T06:36:19Z</time>
      </trkpt>
      <trkpt lat="44.27891" lon="5.28822">
        <ele>407.4</ele>
        <time>2014-05-04T06:36:19Z</time>
      </trkpt>
      <trkpt lat="44.27827" lon="5.28725">
        <ele>387.4</ele>
        <time>2014-05-04T06:36:19Z</time>
      </trkpt>
      <trkpt lat="44.27795" lon="5.28724">
        <ele>385.4</ele>
        <time>2014-05-04T06:36:19Z</time>
      </trkpt>
      <trkpt lat="44.27789" lon="5.2852">
        <ele>384.2</ele>
        <time>2014-05-04T06:36:19Z</time>
      </trkpt>
      <trkpt lat="44.27829" lon="5.28319">
        <ele>382.7</ele>
        <time>2014-05-04T06:36:19Z</time>
      </trkpt>
      <trkpt lat="44.27818" lon="5.28106">
        <ele>376.9</ele>
        <time>2014-05-04T06:36:19Z</time>
      </trkpt>
      <trkpt lat="44.27841" lon="5.27937">
        <ele>372.1</ele>
        <time>2014-05-04T06:36:19Z</time>
      </trkpt>
      <trkpt lat="44.27718" lon="5.27803">
        <ele>370.9</ele>
        <time>2014-05-04T06:36:19Z</time>
      </trkpt>
      <trkpt lat="44.27582" lon="5.27696">
        <ele>366.1</ele>
        <time>2014-05-04T06:36:19Z</time>
      </trkpt>
      <trkpt lat="44.27672" lon="5.27669">
        <ele>365.5</ele>
        <time>2014-05-04T06:36:19Z</time>
      </trkpt>
      <trkpt lat="44.278" lon="5.2777">
        <ele>368.6</ele>
        <time>2014-05-04T06:36:19Z</time>
      </trkpt>
      <trkpt lat="44.27928" lon="5.279">
        <ele>371.5</ele>
        <time>2014-05-04T06:36:19Z</time>
      </trkpt>
      <trkpt lat="44.28043" lon="5.28049">
        <ele>376.5</ele>
        <time>2014-05-04T06:36:19Z</time>
      </trkpt>
      <trkpt lat="44.28127" lon="5.28033">
        <ele>373.7</ele>
        <time>2014-05-04T06:36:19Z</time>
      </trkpt>
      <trkpt lat="44.28273" lon="5.2813">
        <ele>375.7</ele>
        <time>2014-05-04T06:36:19Z</time>
      </trkpt>
      <trkpt lat="44.28414" lon="5.28227">
        <ele>379.2</ele>
        <time>2014-05-04T06:36:19Z</time>
      </trkpt>
      <trkpt lat="44.28417" lon="5.28241">
        <ele>379.7</ele>
        <time>2014-05-04T06:36:19Z</time>
      </trkpt>
      <trkpt lat="44.28419" lon="5.28247">
        <ele>379.9</ele>
        <time>2014-05-04T06:36:19Z</time>
      </trkpt>
      <trkpt lat="44.28421" lon="5.28254">
        <ele>380.2</ele>
        <time>2014-05-04T06:36:19Z</time>
      </trkpt>
      <trkpt lat="44.28423" lon="5.2826">
        <ele>380.4</ele>
        <time>2014-05-04T06:36:19Z</time>
      </trkpt>
      <trkpt lat="44.28425" lon="5.28266">
        <ele>380.7</ele>
        <time>2014-05-04T06:36:19Z</time>
      </trkpt>
      <trkpt lat="44.28427" lon="5.28272">
        <ele>381.1</ele>
        <time>2014-05-04T06:36:19Z</time>
      </trkpt>
      <trkpt lat="44.28428" lon="5.28278">
        <ele>381.4</ele>
        <time>2014-05-04T06:36:19Z</time>
      </trkpt>
      <trkpt lat="44.2843" lon="5.28283">
        <ele>381.8</ele>
        <time>2014-05-04T06:36:19Z</time>
      </trkpt>
      <trkpt lat="44.28431" lon="5.28288">
        <ele>382.1</ele>
        <time>2014-05-04T06:36:19Z</time>
      </trkpt>
      <trkpt lat="44.28432" lon="5.28293">
        <ele>382.3</ele>
        <time>2014-05-04T06:36:19Z</time>
      </trkpt>
      <trkpt lat="44.28433" lon="5.28297">
        <ele>382.6</ele>
        <time>2014-05-04T06:36:19Z</time>
      </trkpt>
      <trkpt lat="44.28433" lon="5.28301">
        <ele>382.8</ele>
        <time>2014-05-04T06:36:19Z</time>
      </trkpt>
      <trkpt lat="44.28433" lon="5.28303">
        <ele>382.9</ele>
        <time>2014-05-04T06:36:19Z</time>
      </trkpt>
      <trkpt lat="44.28435" lon="5.28304">
        <ele>382.9</ele>
        <time>2014-05-04T06:36:19Z</time>
      </trkpt>
      <trkpt lat="44.28437" lon="5.28303">
        <ele>382.9</ele>
        <time>2014-05-04T06:36:19Z</time>
      </trkpt>
      <trkpt lat="44.28439" lon="5.28301">
        <ele>382.8</ele>
        <time>2014-05-04T06:36:19Z</time>
      </trkpt>
      <trkpt lat="44.28442" lon="5.283">
        <ele>382.8</ele>
        <time>2014-05-04T06:36:19Z</time>
      </trkpt>
      <trkpt lat="44.28444" lon="5.283">
        <ele>382.8</ele>
        <time>2014-05-04T06:36:19Z</time>
      </trkpt>
      <trkpt lat="44.28446" lon="5.28299">
        <ele>382.8</ele>
        <time>2014-05-04T06:36:19Z</time>
      </trkpt>
      <trkpt lat="44.28448" lon="5.28298">
        <ele>382.8</ele>
        <time>2014-05-04T06:36:19Z</time>
      </trkpt>
      <trkpt lat="44.28449" lon="5.28296">
        <ele>382.8</ele>
        <time>2014-05-04T06:36:19Z</time>
      </trkpt>
      <trkpt lat="44.28449" lon="5.28294">
        <ele>382.7</ele>
        <time>2014-05-04T06:36:19Z</time>
      </trkpt>
      <trkpt lat="44.28455" lon="5.28302">
        <ele>383.2</ele>
        <time>2014-05-04T06:36:19Z</time>
      </trkpt>
    </trkseg>
  </trk>
</gpx>